Location: Unspecified
(50.0830°N, 0.0000°E)
Time: 07:37:28
(UTC+00:00)

Envisat - Pass Details

Date: 25 November 2019
Orbit: 764 x 766 km, 98.1° (Epoch: 13 December)

Event Time Altitude Azimuth Distance (km) Brightness Sun altitude
Rises 18:33:43 0° 188° (S) 3,221 6.4 -23.2°
Reaches altitude 10° 18:36:10 10° 196° (SSW) 2,299 5.7 -23.6°
Maximum altitude 18:40:51 37° 264° (W) 1,178 4.5 -24.3°
Drops below altitude 10° 18:45:35 10° 331° (NNW) 2,314 5.8 -25.1°
Sets 18:48:04 0° 340° (NNW) 3,245 6.5 -25.5°
